Wind_Speed
39 39 37 37 38 39 40 40 39 34 33 34 31 29 28 28 31 34 36 37 35 33 32 33 34 34 34 35 36 36 36 37 38 39 40 43 44 44 44 44 43 42 41 40 38 36 34 32 30 29 27 25 23 21 18 16 14 13 12 9 7 7 7 7 7 7 6 6 5 4 3 2 1 0 1 1 1 1 1 2 2 2 2 2 2 3 3 3
40 39 38 37 39 40 41 41 40 36 35 35 33 32 30 30 32 33 35 35 34 33 32 33 33 33 33 34 35 35 35 35 37 38 40 42 43 43 44 43 43 42 42 40 38 36 34 32 30 29 27 25 23 21 18 16 14 13 11 8 8 8 8 7 7 7 6 6 5 4 3 2 2 2 2 2 2 2 2 2 1 2 2 2 2 3 3 3
41 40 38 38 39 41 42 41 40 37 37 37 35 34 32 32 34 33 33 33 34 34 33 33 33 33 33 33 33 33 34 35 36 37 39 41 42 43 43 43 43 43 42 41 39 37 35 33 31 29 27 24 23 21 19 17 15 14 10 8 9 9 9 8 8 8 7 6 5 4 3 2 3 3 3 3 3 3 2 2 1 1 2 2 2 3 3 4
41 41 39 38 39 42 42 42 41 38 38 39 38 38 35 35 35 33 33 33 33 33 33 33 33 33 33 33 32 32 32 34 35 36 38 40 42 43 43 44 43 43 42 41 39 37 35 33 31 29 26 24 23 21 19 18 16 14 11 9 10 11 10 10 10 10 8 7 6 4 3 4 4 4 4 4 4 3 3 2 2 1 2 2 3 3 3 4
42 42 40 39 40 43 43 43 42 39 40 40 40 41 38 37 37 36 35 34 34 34 34 34 34 34 33 33 32 32 32 32 34 35 37 39 41 42 43 44 44 44 43 41 39 37 35 33 31 29 28 26 24 22 20 18 17 14 11 10 12 12 11 11 12 11 9 7 6 4 4 5 5 5 5 5 4 3 2 2 2 2 2 2 2 3 4 4
42 42 41 40 40 43 44 44 43 41 41 42 43 44 42 40 39 38 37 36 36 35 35 35 35 34 34 33 33 33 33 33 33 33 35 37 39 41 42 43 43 43 43 42 40 38 36 33 31 30 28 27 25 23 21 19 17 15 13 12 14 13 11 12 12 11 9 8 6 5 5 5 6 6 5 5 4 4 3 2 3 3 2 2 2 3 3 4
43 43 42 41 41 43 45 45 44 42 43 44 45 47 46 42 40 39 38 37 37 37 37 36 36 35 34 33 32 33 34 34 34 34 34 36 38 40 41 42 42 43 42 41 40 38 36 34 32 31 29 27 25 23 22 20 19 16 14 15 16 14 12 13 13 12 10 8 7 7 6 6 7 7 7 5 4 4 3 2 3 3 3 2 2 2 3 4
44 44 43 42 42 44 46 46 45 44 44 45 46 49 49 45 42 40 39 38 38 38 38 37 37 36 35 34 33 33 33 34 34 35 35 35 37 39 40 41 42 42 42 41 40 39 37 35 33 31 29 27 25 24 23 21 19 17 15 16 17 15 14 15 15 13 11 9 8 8 7 7 7 8 8 6 5 5 4 2 2 2 2 1 1 1 2 4
44 45 44 43 42 45 47 47 46 46 46 46 47 51 50 47 44 41 40 40 40 40 39 38 38 37 36 35 34 33 33 33 33 35 36 36 37 38 40 41 41 41 41 41 41 40 38 36 34 32 30 28 27 26 24 23 20 18 18 18 19 17 17 16 15 14 11 10 9 9 8 7 7 8 8 7 6 6 5 4 3 2 1 1 0 1 2 4
45 45 45 44 43 45 47 48 48 47 47 48 48 51 52 49 46 44 42 41 41 41 40 39 38 37 36 35 35 34 33 33 32 33 35 36 37 38 39 40 41 41 41 42 41 41 39 38 35 33 32 30 29 28 26 24 21 20 20 20 20 19 18 17 15 14 12 10 10 10 9 8 8 8 9 8 7 7 6 5 5 4 3 1 1 1 3 3
46 46 46 45 44 45 47 49 49 49 49 49 49 52 53 50 47 45 43 43 43 42 41 40 39 37 36 35 35 35 34 34 32 32 34 36 37 38 39 39 40 41 42 42 42 41 40 38 36 35 33 32 30 29 27 25 23 23 22 21 21 20 19 18 16 14 12 12 11 11 10 10 9 8 9 9 8 7 7 6 6 5 3 2 1 1 2 4
46 46 47 46 45 45 47 49 50 50 50 51 51 52 52 50 47 46 45 45 44 43 42 40 39 38 36 35 35 35 35 35 34 33 33 35 36 38 39 39 40 41 41 41 41 41 40 39 38 36 35 33 32 30 29 27 25 25 24 22 21 21 21 19 17 15 13 13 12 12 12 11 10 9 9 9 9 8 7 7 7 5 4 2 1 2 3 5
46 46 48 47 46 46 47 49 51 52 52 53 53 53 51 49 48 47 47 47 46 44 43 41 40 39 37 36 36 36 35 35 35 34 34 34 35 37 38 39 39 40 40 41 41 41 40 40 39 37 35 34 33 33 31 29 27 26 25 23 22 23 22 20 18 16 15 14 14 13 13 13 11 10 10 9 9 9 8 8 7 6 4 3 2 3 4 6
47 47 48 49 47 46 47 49 51 52 53 54 55 55 53 50 49 49 48 48 47 45 44 43 41 40 38 37 37 36 35 35 35 35 35 35 35 35 37 38 39 39 40 40 40 40 40 40 39 37 36 35 34 34 32 30 28 27 26 25 24 24 23 21 19 17 16 16 16 15 14 14 13 12 11 10 10 9 9 9 8 7 5 4 4 4 5 7
47 47 49 50 48 47 48 49 51 53 54 55 56 57 55 53 51 50 50 49 48 47 46 44 42 40 39 38 38 37 36 35 36 36 36 36 36 36 36 37 38 38 39 39 40 40 40 39 38 37 36 36 35 34 33 31 29 28 28 26 25 26 25 23 21 19 18 18 17 16 15 15 14 14 13 11 11 11 10 9 8 7 6 5 5 5 6 8
48 48 49 51 49 48 48 49 51 53 54 55 57 58 57 55 53 52 52 51 50 49 47 46 44 42 40 39 38 37 36 36 36 36 36 36 37 37 37 37 37 37 38 39 39 39 39 39 38 37 36 36 36 35 33 32 31 29 28 28 27 27 26 24 22 20 19 19 18 17 16 16 16 15 14 13 13 12 11 10 9 8 7 7 7 7 8 9
49 48 49 52 51 49 50 50 51 53 55 55 57 59 59 58 56 55 54 53 52 50 49 47 45 43 41 40 38 37 37 36 36 36 36 37 37 37 37 37 37 37 37 38 38 38 38 38 37 37 36 36 36 36 34 33 31 30 29 29 29 29 27 25 23 21 21 20 20 19 17 17 18 17 16 15 14 13 12 12 10 9 8 8 8 8 10 11
50 49 49 52 52 50 51 50 51 54 55 56 57 59 60 60 59 58 57 55 54 52 50 48 46 44 43 41 39 38 37 37 36 37 36 37 37 38 38 38 38 38 38 37 37 37 37 37 37 36 37 37 36 35 34 32 30 30 30 30 30 30 28 25 24 23 22 21 21 19 18 18 19 18 17 17 16 14 13 12 11 10 10 10 10 10 11 12
50 50 50 52 53 52 52 52 52 54 55 56 57 59 60 61 61 60 59 57 55 54 52 49 47 45 43 41 40 39 38 38 37 37 37 37 37 38 38 38 38 38 37 37 36 36 36 36 36 36 35 35 34 33 33 32 32 32 32 32 32 31 29 26 25 24 24 23 22 21 20 20 20 20 20 19 17 15 14 13 13 12 12 12 12 12 12 12
51 51 50 53 54 53 53 53 53 53 55 57 57 59 61 61 62 62 60 59 57 55 53 50 48 47 44 42 41 40 39 39 38 37 37 37 37 37 38 38 38 37 37 36 35 35 35 35 35 34 33 33 33 33 34 34 34 33 33 33 32 32 30 28 27 26 26 25 24 23 22 22 21 21 21 22 20 17 15 16 15 15 15 15 15 14 14 14
52 52 51 53 55 54 53 54 54 54 55 57 57 58 60 61 62 62 61 60 59 57 55 53 51 49 47 44 43 41 40 39 38 37 36 36 36 37 37 37 37 37 36 36 35 35 35 34 34 33 33 34 35 35 35 35 34 33 33 33 33 32 31 29 29 28 27 26 25 26 25 22 21 22 23 23 21 18 18 18 18 18 18 17 16 16 16 16
53 53 51 53 56 55 54 55 55 54 54 56 57 57 59 60 61 61 61 61 61 59 58 56 53 51 49 46 44 43 42 41 39 38 36 36 36 36 36 36 37 36 36 35 34 34 34 34 33 34 34 35 35 35 35 35 34 33 33 33 33 33 32 31 30 29 28 28 27 28 27 22 22 24 24 25 22 19 19 20 20 20 19 19 19 18 18 19
54 54 52 53 56 56 55 55 55 55 54 55 56 57 58 60 61 62 62 62 62 61 59 58 56 53 51 48 46 44 42 41 40 38 37 36 35 35 34 35 36 36 36 35 34 33 33 33 33 34 34 34 34 34 35 34 34 34 34 34 34 34 33 32 31 30 29 29 28 29 28 24 23 25 25 25 24 21 21 23 23 23 21 21 21 20 20 21
54 54 53 53 57 57 55 55 55 55 55 55 56 57 57 59 61 62 62 63 64 63 61 59 57 55 52 50 47 45 43 42 41 39 37 36 34 34 34 34 35 36 36 35 35 34 33 34 34 34 34 34 35 34 34 34 34 34 35 35 35 35 34 33 32 31 30 30 29 29 29 26 24 26 26 25 24 23 24 25 25 24 23 23 23 23 22 23
55 55 53 53 56 58 57 56 55 55 56 55 56 57 58 59 61 62 63 64 65 64 64 61 59 56 54 51 48 46 44 43 42 40 38 37 36 35 35 35 35 35 36 36 36 35 34 34 34 34 35 34 34 35 35 35 34 35 35 36 36 36 36 35 34 33 32 32 30 29 30 27 25 27 27 25 25 25 26 27 26 25 25 25 25 25 25 25
56 56 54 53 56 58 58 56 55 56 56 56 56 57 58 59 61 62 63 65 66 66 65 63 61 58 55 53 50 48 46 45 44 42 40 39 38 37 36 36 36 36 36 36 36 36 35 35 34 34 34 34 35 35 35 35 35 35 35 36 36 37 37 37 36 36 35 33 32 31 32 29 25 25 26 26 25 26 27 28 27 26 26 27 27 27 27 28
56 56 55 54 55 57 58 56 55 56 56 56 57 57 58 59 61 62 62 65 68 67 66 64 62 59 57 55 53 50 48 47 46 44 42 41 39 38 37 37 36 36 36 37 37 36 36 35 35 34 34 34 34 35 35 35 35 36 35 36 36 37 38 38 38 38 37 36 34 33 34 33 27 24 25 27 26 27 28 28 28 28 28 29 29 29 30 32
56 55 55 54 55 57 57 57 56 55 56 57 57 57 58 59 61 62 63 66 69 67 66 65 63 60 58 56 54 52 49 47 47 47 44 43 41 40 39 37 36 36 36 36 36 35 35 36 35 35 35 34 34 34 35 35 36 36 36 36 37 38 38 39 40 40 40 39 37 35 35 37 32 25 26 28 28 28 28 28 30 31 31 32 31 32 33 34
55 55 55 54 55 57 57 57 57 56 57 57 57 57 58 60 62 62 63 67 70 68 66 66 64 62 60 57 55 53 51 49 48 48 46 45 44 42 41 39 38 38 37 37 37 37 37 37 37 37 37 36 35 35 35 36 36 36 36 37 37 38 39 39 40 40 41 41 39 38 38 38 36 31 28 28 28 28 29 30 32 32 33 33 33 33 34 34
55 54 55 55 56 57 57 57 58 58 58 58 58 58 59 61 63 64 66 68 70 68 67 66 65 63 62 59 57 55 53 52 51 50 49 49 47 45 43 42 41 40 40 39 39 39 38 39 39 39 38 37 36 36 36 36 36 36 36 36 37 37 38 39 40 40 42 42 40 40 39 39 39 35 32 31 30 29 30 32 32 33 33 33 33 33 33 33
54 54 55 55 56 57 56 57 58 59 59 59 59 59 61 62 64 66 68 67 68 69 69 68 66 64 63 61 59 56 56 55 54 54 53 51 50 49 47 46 45 44 43 41 41 40 40 40 40 39 38 37 37 36 37 37 37 37 37 36 36 36 37 38 39 39 42 42 41 41 40 40 39 36 34 35 34 31 31 31 32 34 35 35 34 33 33 33
55 55 55 55 56 57 57 57 58 59 60 61 60 61 62 63 66 68 66 64 67 70 69 68 67 65 64 62 60 58 57 57 56 55 55 53 52 51 49 48 46 45 44 42 41 40 40 40 39 39 38 38 38 38 38 38 38 38 37 36 36 36 37 38 38 39 40 40 40 40 40 39 36 34 36 38 36 32 32 32 32 35 37 38 36 35 34 34
56 56 56 56 56 57 58 57 58 60 61 61 61 62 62 65 67 66 63 63 67 68 66 67 67 66 65 64 63 62 59 58 56 56 56 55 54 52 51 49 47 46 44 42 41 41 40 41 40 40 40 39 39 39 39 38 37 37 37 37 37 37 38 39 39 39 38 38 39 39 40 39 35 33 36 37 36 34 34 34 34 36 38 40 40 38 36 35
57 57 57 57 57 58 59 59 59 60 61 62 63 63 64 67 66 63 62 64 66 66 65 66 67 67 67 66 64 63 62 60 59 57 57 56 56 55 53 51 49 48 46 45 45 44 43 42 41 41 40 39 39 39 38 38 38 39 39 39 39 39 40 40 39 39 38 38 39 39 40 39 35 34 34 35 35 36 37 37 37 37 39 41 42 40 39 37
58 59 59 59 59 59 60 60 61 62 63 63 64 65 67 68 64 63 64 64 65 65 64 66 68 68 68 67 66 64 63 62 61 59 58 58 56 55 53 52 50 49 48 47 46 45 44 43 42 41 41 41 41 41 40 40 41 41 41 41 40 39 40 40 40 40 39 40 40 40 40 38 35 35 35 35 35 36 39 39 39 40 40 41 42 41 40 38
58 59 60 60 60 59 60 61 62 63 65 65 66 68 69 66 63 63 65 64 64 65 65 66 68 69 69 69 68 67 65 63 62 61 60 58 57 55 54 52 51 49 48 46 46 46 44 43 42 42 42 42 42 42 41 41 41 41 41 40 39 39 39 40 41 41 41 42 41 40 39 37 36 37 37 36 36 37 40 40 40 41 41 41 42 42 42 40
59 59 59 60 61 61 61 61 62 64 66 67 69 70 68 65 64 65 65 64 65 66 67 68 68 69 70 70 69 68 66 65 64 64 62 60 60 58 55 54 52 51 49 47 47 47 46 45 44 43 42 42 41 41 40 40 40 40 40 39 39 40 40 40 41 42 42 43 41 39 38 36 36 37 37 37 37 38 39 39 40 41 41 42 43 43 44 42
56 58 60 61 62 62 62 63 63 63 65 67 69 70 68 66 67 66 65 65 65 65 67 68 67 67 68 68 69 68 67 66 66 65 64 63 61 59 56 55 53 51 50 49 48 48 47 47 46 45 44 44 43 43 42 42 41 42 41 41 41 42 41 41 41 41 41 42 41 40 39 37 36 36 36 36 37 38 39 39 40 41 43 44 44 45 45 44
51 55 59 62 62 62 63 64 64 64 66 68 69 68 68 68 68 67 66 65 65 65 67 68 67 66 66 66 66 66 66 66 65 64 64 63 61 58 56 54 53 52 51 50 50 49 49 48 48 47 46 46 45 45 44 43 43 42 41 41 41 41 41 41 42 42 42 43 43 42 41 40 36 35 36 37 38 39 41 42 43 44 46 47 47 46 47 46
50 52 55 59 61 62 63 63 65 66 67 66 65 65 67 70 70 69 67 66 65 65 66 67 66 66 66 65 64 64 64 64 64 63 63 61 60 58 55 53 52 51 51 51 50 50 50 50 50 49 48 48 47 45 44 43 42 42 41 41 41 41 43 43 44 44 44 45 45 45 45 41 37 36 37 39 40 41 43 43 45 48 48 48 48 48 47 47
53 52 52 55 59 61 63 64 64 65 63 60 60 63 66 68 69 69 68 68 67 67 67 67 66 65 65 66 65 63 63 63 63 63 62 61 60 59 56 53 52 52 51 52 52 51 51 52 51 51 51 49 47 45 44 43 43 42 43 43 43 44 45 47 48 48 47 47 47 47 47 43 39 39 40 41 42 43 45 46 48 50 50 50 50 50 49 49
56 55 52 53 57 59 61 62 62 61 59 56 56 60 63 64 65 66 68 68 68 68 68 68 67 66 65 65 64 64 63 63 63 62 62 62 60 58 57 54 53 52 51 51 51 49 49 50 51 51 50 49 48 47 46 46 46 46 46 46 47 48 49 50 51 50 49 49 48 49 49 46 43 42 43 44 46 46 48 50 50 51 50 50 51 51 50 50
55 55 55 55 56 58 60 62 62 62 59 54 54 56 58 60 63 65 66 68 68 68 69 69 68 67 66 65 65 64 64 63 63 62 61 60 59 57 57 56 54 53 53 52 52 51 50 52 53 53 53 52 52 51 50 50 50 51 51 51 51 52 53 52 53 52 53 52 51 52 52 49 46 46 47 49 49 49 51 51 50 51 51 50 51 51 50 50
54 53 55 57 57 57 60 62 61 59 56 55 57 58 57 57 60 63 65 66 67 68 68 69 69 68 66 65 65 64 64 63 63 63 61 60 59 57 56 57 56 55 55 54 54 54 54 54 55 56 57 56 56 56 55 55 56 57 56 55 55 55 54 55 55 56 57 55 54 57 57 53 50 50 50 51 52 51 53 53 53 54 54 52 52 52 51 51
56 54 54 56 56 56 58 60 59 56 56 59 60 59 59 58 58 60 62 64 65 66 67 67 67 67 66 66 65 64 64 63 62 62 62 61 60 58 58 58 57 56 55 54 53 52 52 53 54 56 58 59 60 59 57 55 55 56 55 54 54 54 54 55 55 56 58 57 56 59 59 56 54 53 53 54 54 53 54 56 55 55 55 55 55 53 53 52
57 56 56 56 57 58 57 56 57 57 57 59 60 59 60 61 59 58 60 62 64 64 65 65 65 65 65 65 64 64 63 62 62 62 61 61 60 59 58 58 58 57 55 54 53 52 52 54 56 58 60 61 61 59 55 51 49 51 51 51 52 52 52 53 55 58 60 59 60 61 60 59 57 56 56 56 55 55 55 55 55 55 56 57 57 54 53 52
57 58 58 58 57 60 60 56 55 56 57 58 58 59 59 59 60 61 62 62 62 62 63 63 64 64 64 63 62 62 61 60 60 60 60 59 59 58 57 57 56 56 54 53 53 53 54 56 58 59 60 61 60 58 56 53 52 54 55 54 54 53 53 55 59 61 60 61 63 62 60 61 61 58 57 56 56 57 56 56 57 58 58 58 57 55 54 54
57 58 59 59 57 57 60 60 55 54 57 60 59 58 58 59 61 62 63 62 62 62 63 63 62 62 62 61 61 60 60 59 59 58 58 57 57 57 56 55 55 54 54 53 53 54 55 56 57 58 59 59 59 58 57 56 56 55 56 55 55 54 55 57 60 60 59 61 64 61 60 63 63 60 58 57 57 57 57 57 58 58 58 57 57 58 59 59
58 58 58 60 58 54 55 59 58 53 53 57 60 59 59 61 62 60 60 63 64 63 64 63 60 59 58 59 59 60 60 60 59 59 58 57 57 57 56 56 56 55 55 54 54 54 55 55 55 56 58 58 57 57 57 57 58 57 57 56 55 55 57 59 60 60 60 62 63 62 63 65 65 63 61 59 57 57 56 57 57 57 58 58 60 62 63 63
59 60 59 60 60 57 53 55 58 56 53 53 57 60 61 62 62 59 60 63 65 64 65 63 60 58 59 59 60 60 58 57 57 56 56 56 57 57 57 57 56 55 56 56 55 55 56 56 56 56 57 58 57 57 58 58 59 58 57 57 57 59 61 63 63 63 62 63 64 64 66 67 65 63 60 58 58 58 58 58 58 59 60 62 63 64 65 66
58 60 61 61 61 61 58 54 52 54 57 55 54 56 60 62 62 61 60 61 61 62 63 62 60 60 62 62 62 60 58 57 56 55 55 55 56 56 56 57 56 55 56 56 56 56 57 57 57 57 59 60 59 59 60 59 59 59 60 61 62 63 65 66 66 64 64 64 64 64 67 68 65 62 60 59 60 61 61 62 62 62 63 65 65 66 66 67
58 60 62 63 62 62 62 59 53 51 54 57 55 54 57 60 62 64 63 61 60 59 58 58 60 62 65 64 63 60 59 59 58 56 55 56 56 56 57 57 56 56 56 56 56 57 57 56 56 57 59 60 58 59 60 59 60 63 65 66 66 66 67 67 67 66 65 64 64 65 68 67 64 63 64 63 62 62 62 64 64 65 66 66 66 66 66 67
Wind_Direction
211 213 212 211 206 206 208 208 209 208 206 206 210 206 197 197 192 180 175 175 172 173 175 175 175 176 178 180 181 182 183 183 183 183 184 184 182 182 182 183 183 184 185 185 185 185 185 183 182 182 183 182 184 187 185 183 181 183 182 171 170 169 176 190 191 193 181 170 174 163 170 209 236 218 178 159 134 130 102 79 63 61 56 42 26 17 17 17
210 212 212 210 206 205 206 207 208 206 203 204 206 201 194 196 193 184 177 177 177 178 180 180 179 180 182 184 184 185 186 186 186 186 187 186 184 185 184 184 185 186 187 187 187 187 187 187 186 187 187 187 188 189 189 187 188 190 186 174 174 178 188 197 199 198 188 184 187 180 187 190 172 160 163 157 148 148 121 104 82 60 48 37 28 17 17 16
210 211 211 209 206 204 204 205 206 204 202 202 203 197 192 195 195 189 184 182 182 182 184 184 183 184 185 186 186 188 189 190 190 189 189 187 186 187 187 187 188 188 189 189 190 190 190 190 191 191 191 192 193 192 193 193 195 196 189 179 182 190 195 192 194 199 197 199 204 197 188 170 154 152 162 155 153 158 130 113 95 58 34 25 25 20 21 23
210 211 210 209 206 203 203 204 205 203 200 200 200 194 190 194 195 194 191 189 189 188 188 188 188 189 189 189 189 190 192 193 193 192 191 190 189 189 189 189 190 191 192 192 193 193 193 193 194 194 194 197 198 197 198 199 201 201 193 186 191 200 198 190 195 202 203 207 217 212 181 162 152 151 163 159 155 159 140 126 114 73 38 28 26 27 29 32
211 211 210 208 206 203 202 202 203 202 200 200 198 193 190 192 195 196 196 194 194 193 192 192 192 192 193 193 194 194 194 194 194 194 194 193 192 192 192 192 192 193 195 195 195 196 196 196 197 197 197 199 201 202 203 205 207 206 199 195 203 210 203 196 201 205 206 211 224 224 185 163 153 153 167 167 157 156 148 133 119 96 66 53 43 40 36 32
211 210 210 208 206 203 201 201 201 200 199 199 197 194 190 191 194 196 198 197 196 196 195 195 195 195 195 196 197 198 197 196 196 196 196 196 196 195 195 195 195 195 196 197 198 199 199 199 200 202 202 203 203 204 206 209 211 211 207 206 214 220 209 200 205 210 210 212 220 219 194 168 155 155 172 180 161 156 161 143 128 118 97 72 63 55 38 28
211 210 210 208 206 203 200 200 200 199 199 199 197 195 192 191 194 197 199 199 198 197 196 196 196 196 195 195 196 198 199 199 198 199 199 198 199 198 198 198 198 198 198 199 200 201 202 202 203 205 207 208 207 208 209 212 214 213 212 214 221 225 212 201 205 214 214 215 217 211 198 179 162 159 175 190 168 157 163 152 135 128 126 104 73 61 39 26
211 209 210 208 206 203 201 200 199 199 198 199 198 196 195 193 194 197 200 200 199 197 196 196 196 195 194 193 194 196 197 199 200 201 201 200 200 200 200 200 200 200 200 201 202 203 204 205 206 207 209 211 213 213 214 216 217 216 215 219 224 222 212 205 206 214 218 218 216 208 200 188 172 165 178 190 171 159 163 158 149 133 137 131 90 50 34 25
213 209 210 208 205 204 201 199 199 198 198 199 198 197 196 195 194 197 200 200 199 197 196 196 195 194 194 193 194 195 196 197 199 201 202 202 202 201 201 202 202 202 202 202 204 205 206 207 208 209 210 213 216 218 219 219 218 217 217 219 225 223 217 212 209 213 220 220 216 210 204 196 183 171 180 191 174 166 171 172 181 197 212 187 87 12 30 29
213 210 210 209 206 204 201 199 198 198 198 198 198 197 198 196 195 195 198 199 199 197 196 195 194 194 194 195 195 196 196 196 197 199 201 202 203 203 203 203 203 203 203 204 205 207 208 209 209 209 211 213 216 219 220 220 219 220 221 222 226 226 221 217 213 215 220 220 215 212 208 205 196 181 184 191 183 180 181 185 196 211 229 230 270 358 29 26
214 211 210 210 206 204 202 199 197 197 197 198 198 198 198 198 196 195 197 198 197 196 196 196 196 195 195 196 197 198 197 196 197 198 200 202 203 204 204 204 204 205 205 205 207 208 209 210 211 211 212 214 216 219 220 220 221 223 225 224 225 226 221 218 217 217 220 219 216 214 211 211 207 196 196 194 191 196 193 194 205 215 227 234 266 351 16 6
215 211 209 211 207 205 203 201 198 196 196 198 198 197 198 199 197 196 197 197 197 196 197 197 197 198 197 198 200 200 199 198 198 199 200 201 203 204 205 205 206 206 206 207 208 209 211 211 212 213 214 215 216 219 220 220 221 224 226 225 224 224 220 217 218 219 220 218 216 215 215 216 214 210 210 203 199 203 201 200 205 209 215 229 275 330 349 348
215 213 209 211 208 205 204 202 199 197 196 197 198 198 198 199 198 197 198 197 197 197 198 199 199 199 199 201 202 201 200 200 200 200 201 202 202 203 204 206 207 207 208 209 209 210 212 213 213 213 215 216 218 219 220 220 221 224 226 225 222 221 218 216 217 219 220 217 215 215 217 220 221 219 219 213 209 207 203 202 202 201 206 229 274 312 330 338
215 214 209 210 209 206 205 203 200 198 197 197 198 198 197 199 199 197 198 198 198 198 199 200 201 201 201 203 203 202 201 201 202 202 202 202 202 203 204 205 207 207 208 210 210 211 213 214 214 214 215 217 220 221 222 221 221 223 225 224 220 218 216 216 218 220 220 218 217 216 216 222 225 225 223 217 214 206 200 202 201 200 208 231 265 296 314 327
214 215 209 209 210 207 206 204 201 199 198 198 198 198 197 198 199 198 198 199 199 200 201 202 202 202 203 204 204 203 203 202 203 203 203 203 203 203 203 205 206 207 208 210 211 212 213 214 215 215 216 218 221 223 223 223 223 223 224 223 219 216 216 217 219 221 222 221 220 218 216 222 226 227 225 218 214 206 200 206 206 211 221 235 256 283 301 316
213 215 210 209 210 207 207 205 203 201 200 199 199 199 198 198 199 199 199 200 200 201 202 203 203 203 204 205 204 203 204 204 204 204 204 204 204 204 204 204 206 207 208 210 210 212 213 214 215 216 217 219 221 223 223 224 224 223 223 222 219 216 216 219 220 222 225 224 224 222 217 221 226 227 225 217 212 207 207 212 215 226 238 250 265 281 294 306
212 215 210 209 209 207 207 206 204 203 201 201 200 199 199 198 199 200 200 201 202 202 203 204 204 204 205 205 205 205 205 205 206 206 205 205 205 205 205 205 205 206 208 209 210 212 213 214 215 217 218 219 221 223 224 225 225 224 223 221 219 218 217 220 222 224 228 227 227 225 219 221 226 228 226 219 214 212 215 217 222 232 242 256 270 285 296 305
212 215 211 209 209 207 207 207 205 204 203 202 201 200 200 199 199 200 201 202 203 203 204 205 204 205 205 205 206 207 207 207 207 207 207 207 206 206 206 206 206 206 207 209 210 212 213 214 215 216 217 220 221 223 225 225 224 223 222 221 219 218 218 220 223 226 229 230 230 228 222 222 226 226 227 225 221 218 222 226 231 238 244 256 267 280 293 302
212 215 212 209 209 208 207 207 206 205 204 204 203 202 201 200 199 200 202 203 204 205 205 205 205 206 207 207 208 208 209 209 208 208 208 208 208 208 208 208 208 208 208 209 211 212 214 215 216 217 219 221 222 223 224 223 222 222 221 221 219 218 219 221 224 227 230 231 231 229 224 222 225 225 227 229 227 224 228 236 241 244 248 255 264 273 281 288
212 214 213 209 210 208 207 207 207 206 205 205 205 204 203 202 200 201 202 204 205 206 207 207 207 208 208 209 210 210 210 211 211 210 210 210 210 210 210 210 210 210 210 211 212 213 215 217 218 218 219 220 221 222 223 223 223 222 222 222 220 219 219 222 226 228 231 231 232 232 226 221 223 227 228 230 228 226 231 239 243 247 250 256 264 271 277 282
212 214 213 210 210 209 207 208 208 208 206 206 206 206 205 204 203 203 204 205 206 206 207 208 209 210 210 210 212 212 212 212 213 212 212 211 211 211 211 211 211 212 212 213 214 215 216 217 217 217 218 219 220 222 223 224 224 223 223 223 222 221 221 224 228 230 232 233 233 235 232 223 223 228 232 235 232 227 233 240 244 249 254 261 268 275 281 286
211 213 213 210 210 210 208 208 208 208 207 207 208 207 207 206 205 205 205 206 207 208 208 208 209 211 212 212 213 213 213 213 213 214 214 213 212 213 213 212 213 213 214 214 216 216 217 218 217 217 218 220 221 223 224 225 225 225 225 225 224 223 223 225 229 232 234 235 233 236 236 227 225 228 232 238 239 234 238 243 247 252 259 265 271 277 283 285
210 212 213 211 210 210 208 208 208 208 208 207 208 208 208 208 207 206 207 208 208 209 210 210 211 212 212 214 214 215 215 215 215 215 215 215 215 215 214 214 215 215 215 216 217 217 218 219 219 219 220 221 222 223 225 226 226 226 225 225 225 225 226 227 230 233 236 237 236 237 238 230 227 232 233 237 241 241 244 247 250 254 259 265 269 274 278 279
209 211 213 212 211 211 209 209 208 209 209 208 208 209 209 209 209 208 208 209 209 209 211 212 212 213 214 214 215 217 217 217 216 216 216 217 217 217 216 216 216 216 217 217 218 218 218 219 220 220 221 222 223 224 225 226 227 227 226 226 226 227 229 230 232 234 236 239 239 240 241 234 229 233 236 239 243 245 247 249 253 257 261 265 269 272 273 276
208 210 212 211 211 211 210 209 209 209 209 209 209 209 209 210 210 210 210 211 211 210 211 212 212 214 214 215 216 218 219 218 218 217 217 218 218 218 218 218 217 218 219 219 219 219 220 221 221 221 222 223 225 225 226 227 227 228 227 228 228 228 230 232 234 236 238 240 241 243 245 238 230 234 238 240 245 248 250 252 254 260 265 267 270 273 275 278
207 209 211 211 211 212 211 210 209 210 210 210 210 209 209 210 211 211 211 213 213 212 212 212 212 214 214 215 216 218 219 219 219 219 219 220 220 219 219 219 219 220 220 221 221 221 222 223 223 223 224 225 227 228 229 229 230 230 230 231 231 231 232 233 235 237 239 241 243 246 249 243 231 231 240 242 243 246 251 255 258 261 265 267 270 273 275 277
206 208 210 210 210 212 212 211 210 210 211 211 211 210 210 211 211 212 212 214 214 213 213 213 213 214 215 216 217 218 220 219 220 220 220 221 221 221 222 221 221 222 222 223 223 224 224 225 225 226 226 227 229 230 231 232 233 233 233 234 234 234 235 236 237 239 241 243 245 246 252 253 239 229 239 245 244 245 250 257 261 263 266 268 270 272 273 274
206 207 209 210 210 211 212 211 211 211 212 212 211 211 212 212 212 212 212 214 215 213 213 214 214 215 216 216 217 218 220 220 221 222 221 222 223 223 224 223 224 225 224 225 226 226 226 227 228 228 228 229 229 231 232 233 234 235 235 236 237 238 238 239 239 241 243 245 247 248 252 257 252 241 243 246 247 249 251 255 261 266 269 271 272 272 273 273
206 207 209 209 209 210 211 211 211 211 212 212 212 212 213 213 213 212 212 215 215 214 214 215 214 215 216 217 218 219 220 221 221 222 222 223 224 224 225 225 226 227 226 225 226 226 226 227 228 228 228 229 229 231 233 234 235 236 237 238 239 240 241 241 242 243 246 247 248 250 252 257 259 255 252 252 252 254 257 261 265 269 270 271 271 272 273 274
207 207 209 210 210 210 211 212 212 212 212 212 213 213 214 214 214 214 213 214 215 215 215 216 216 216 217 218 218 219 221 221 222 222 222 223 224 224 225 226 226 227 227 226 227 226 226 228 229 229 230 230 231 232 234 236 238 238 239 240 241 242 242 244 245 246 248 249 250 252 254 257 260 260 260 260 258 260 266 270 271 272 271 271 271 273 274 275
207 208 210 211 211 210 211 212 212 213 213 213 213 214 214 215 215 216 215 215 216 216 215 216 217 217 218 220 221 221 222 222 222 223 223 223 224 224 225 226 226 227 227 227 227 228 228 229 230 231 232 233 233 235 236 238 240 240 241 242 243 244 244 245 246 247 249 250 252 254 255 256 258 262 267 267 266 269 272 273 274 275 275 275 277 278 279 279
207 208 210 211 211 210 210 211 212 213 213 213 214 215 216 217 217 217 216 215 218 218 216 217 218 218 219 220 221 222 223 224 223 224 224 225 225 226 227 228 228 229 230 230 230 231 232 232 233 233 234 234 235 236 237 239 241 242 244 245 246 247 247 247 247 248 250 251 253 254 256 256 256 260 267 270 273 277 276 275 276 277 279 281 283 284 284 284
208 208 210 211 211 211 210 210 211 213 213 214 214 215 217 219 218 217 215 215 219 219 217 218 219 219 220 221 222 222 223 224 224 225 226 226 226 227 228 229 230 231 233 234 234 235 235 235 234 235 235 236 236 237 239 241 243 245 246 247 247 248 249 249 249 251 252 253 254 255 257 256 255 257 263 269 275 278 277 276 277 278 282 286 287 287 287 286
209 209 210 211 211 211 210 210 210 212 213 214 215 215 217 219 218 217 217 217 220 220 218 218 219 219 220 221 222 223 224 224 224 224 226 227 228 228 228 229 230 231 232 234 234 234 235 235 235 236 237 238 239 240 241 242 243 244 245 246 247 249 251 252 253 254 254 254 255 256 257 257 258 259 261 265 270 273 275 276 277 279 282 285 286 288 288 288
210 211 211 211 211 211 211 211 211 211 212 214 215 216 218 219 217 216 218 218 220 221 219 219 220 220 220 221 221 222 223 225 225 225 226 228 229 230 231 232 232 233 234 235 237 237 238 238 237 237 238 238 239 239 240 241 242 244 246 248 250 252 254 255 256 256 257 256 255 255 257 258 260 262 262 263 265 268 271 274 277 280 281 282 284 285 285 285
212 212 213 213 213 212 212 212 213 213 213 214 215 218 219 219 219 218 219 219 219 221 220 220 220 220 220 221 221 222 223 224 225 226 227 229 230 230 231 232 233 234 236 238 241 242 243 243 241 241 241 241 241 242 242 243 245 246 248 250 252 254 254 256 257 257 257 257 256 257 258 260 262 263 263 264 265 266 269 272 276 278 279 281 282 283 283 284
216 215 215 215 215 214 213 213 214 214 215 215 217 219 220 220 220 220 221 221 220 221 222 222 221 221 221 221 222 223 224 225 225 226 227 228 230 230 231 232 233 234 236 237 239 241 243 244 243 242 242 243 243 243 244 245 245 247 249 250 251 252 252 254 255 256 257 259 259 259 259 259 259 261 263 264 265 266 268 271 272 274 276 278 278 280 282 284
219 218 217 216 215 215 214 213 214 215 217 218 219 221 221 221 222 221 222 222 222 222 224 224 223 224 224 223 223 224 225 226 227 228 228 229 230 231 232 234 235 236 237 238 239 240 241 243 243 242 241 242 242 242 244 245 246 248 249 249 249 251 253 254 256 258 259 261 261 259 258 257 256 259 262 264 265 268 269 270 271 272 273 274 274 276 278 282
219 219 218 218 217 216 216 215 215 215 217 219 221 222 222 223 223 223 223 223 223 224 225 226 225 225 226 226 225 226 227 228 229 230 231 232 232 233 234 236 237 238 240 241 242 243 243 244 244 244 244 243 243 244 246 248 249 250 250 250 250 252 254 255 257 258 259 261 261 260 258 257 257 259 262 264 266 268 270 272 273 273 273 273 274 276 278 280
220 219 219 220 220 220 219 219 218 217 219 222 224 224 224 224 224 224 224 224 224 225 226 228 227 226 226 227 227 228 229 230 231 232 232 233 234 234 235 237 239 240 241 241 241 242 243 244 245 245 245 245 246 247 249 250 250 250 251 251 252 253 254 255 256 256 257 259 260 261 260 259 260 261 262 264 267 268 270 272 273 273 273 274 276 277 278 280
223 223 222 222 223 222 222 223 223 224 226 228 227 225 225 225 226 226 226 225 225 225 227 228 228 227 227 228 228 229 229 230 231 232 233 233 234 235 236 237 239 240 241 241 241 242 243 244 244 245 245 246 248 248 248 248 249 250 250 251 252 253 253 253 254 255 256 257 259 261 262 261 262 263 263 265 267 269 270 270 271 272 274 275 276 277 278 278
220 225 227 227 227 226 226 226 227 229 230 230 229 228 227 227 227 227 227 227 226 226 227 228 229 228 227 227 229 229 230 231 231 232 233 234 234 235 236 237 237 238 240 241 242 243 245 245 245 246 247 248 247 247 247 247 247 248 249 250 252 252 253 254 255 256 256 256 258 261 263 263 263 265 266 267 268 269 269 270 270 272 273 274 275 276 277 277
212 220 225 227 229 230 230 230 229 229 230 229 230 230 229 227 227 228 228 229 228 227 228 229 230 230 228 227 228 229 230 231 231 232 233 234 234 234 235 235 235 236 238 239 240 242 242 243 244 245 245 245 245 245 245 246 247 248 250 252 252 253 254 254 255 256 256 257 259 261 263 265 266 267 267 269 270 270 271 271 271 271 271 271 272 273 275 276
207 212 218 222 224 226 228 231 232 231 230 229 229 230 229 228 228 228 228 229 230 229 229 230 231 232 231 230 229 230 231 231 232 232 233 233 234 234 235 236 236 237 238 240 242 243 243 243 244 244 244 244 244 245 246 249 251 252 253 253 253 253 252 252 253 255 256 259 261 261 263 266 267 268 269 270 271 271 271 270 269 269 270 270 271 272 272 273
208 208 211 215 217 219 222 227 231 232 231 231 231 231 230 229 228 228 229 229 230 231 231 231 232 233 233 232 231 230 231 232 232 233 233 234 234 234 235 237 237 238 239 240 240 241 241 242 243 244 245 246 248 250 254 258 259 258 257 256 256 255 254 254 255 255 257 260 260 260 264 266 266 266 267 267 267 268 268 269 269 270 271 270 270 270 271 272
215 211 208 210 214 215 216 220 225 228 229 231 231 231 232 231 229 229 229 229 230 231 231 232 232 233 234 234 233 232 232 233 234 234 234 234 234 235 236 237 238 238 238 238 238 238 239 241 241 243 246 249 251 253 254 255 255 254 253 253 252 252 252 252 251 253 258 259 258 260 264 264 264 264 264 264 265 264 265 266 268 269 269 270 271 272 274 275
221 217 212 211 214 216 216 215 218 222 225 228 230 230 231 231 230 230 229 229 230 230 231 232 232 233 234 234 235 234 234 234 235 235 235 235 235 235 235 236 237 237 237 237 237 238 239 241 243 244 246 248 250 250 248 247 247 248 248 247 247 247 247 248 250 255 258 257 257 262 264 263 264 264 263 263 263 263 263 264 265 266 267 270 272 274 274 274
223 222 220 218 218 219 218 216 215 217 221 225 227 228 229 230 230 230 230 230 230 230 231 231 231 232 234 234 235 235 234 234 234 234 234 235 235 235 235 236 236 236 237 237 237 238 239 241 243 244 246 247 247 247 247 247 248 248 248 248 248 249 249 251 254 258 258 256 259 263 262 261 264 264 262 262 262 262 263 264 265 266 268 270 272 272 271 271
223 223 224 224 223 222 221 218 215 213 216 220 223 225 226 227 228 229 230 230 230 230 231 232 231 232 233 234 235 235 234 233 233 233 233 234 235 235 235 236 236 236 237 237 237 238 239 241 242 243 244 244 245 246 247 248 248 248 249 250 250 251 252 254 257 258 257 257 260 261 259 260 264 264 263 264 263 262 263 264 266 268 269 269 269 270 271 272
224 224 225 226 226 224 221 220 219 217 214 215 219 222 224 225 227 228 230 230 230 230 231 232 231 232 233 234 235 235 234 234 234 233 232 233 234 234 235 236 236 237 239 239 240 240 240 241 241 242 244 243 242 245 247 247 248 249 249 249 250 251 253 255 256 256 255 256 258 259 259 261 264 264 264 265 264 264 264 264 265 265 266 267 268 270 272 274
226 226 226 227 227 226 223 221 221 223 222 218 215 218 222 223 225 227 228 229 230 231 231 231 231 232 234 234 235 236 235 235 235 234 233 234 234 234 236 237 236 237 240 241 242 243 243 243 242 243 246 244 242 244 246 247 249 249 247 248 250 252 254 255 255 255 255 257 258 259 260 264 267 266 264 264 264 264 264 265 265 266 266 267 269 271 273 274
227 227 227 227 227 228 226 222 219 220 225 224 218 216 219 222 223 225 227 228 230 231 232 231 231 232 233 234 235 237 237 238 238 237 237 238 237 236 237 237 235 236 238 240 242 244 245 245 244 245 247 246 244 244 246 249 250 248 247 250 253 253 254 255 254 255 256 258 259 259 262 265 265 264 263 263 263 265 266 267 268 268 268 269 270 271 272 273
Height
5739 5742 5744 5747 5750 5753 5757 5760 5764 5767 5770 5773 5775 5778 5780 5783 5786 5787 5790 5793 5795 5798 5800 5803 5806 5809 5811 5814 5817 5820 5823 5826 5829 5832 5834 5836 5839 5842 5844 5847 5850 5853 5856 5858 5861 5863 5865 5867 5868 5869 5871 5873 5874 5875 5877 5878 5879 5881 5882 5884 5885 5885 5886 5886 5887 5888 5888 5888 5889 5890 5890 5891 5891 5891 5891 5892 5892 5892 5893 5893 5893 5893 5893 5893 5893 5893 5893 5894
5737 5739 5742 5744 5747 5750 5754 5758 5761 5764 5768 5771 5774 5776 5779 5782 5785 5787 5789 5792 5795 5797 5800 5803 5805 5808 5811 5814 5816 5819 5822 5825 5828 5830 5833 5835 5838 5840 5843 5846 5848 5851 5854 5857 5860 5861 5864 5866 5867 5868 5870 5872 5873 5875 5876 5878 5879 5880 5882 5883 5884 5884 5885 5886 5886 5887 5887 5888 5888 5889 5890 5890 5890 5891 5891 5891 5892 5892 5892 5893 5893 5893 5893 5893 5893 5893 5893 5893
5734 5736 5739 5742 5745 5748 5751 5755 5759 5762 5766 5769 5772 5775 5778 5781 5784 5786 5788 5791 5794 5797 5800 5802 5805 5808 5810 5813 5816 5818 5821 5824 5826 5829 5831 5833 5836 5839 5842 5845 5847 5850 5853 5856 5858 5860 5862 5864 5865 5867 5870 5871 5873 5874 5875 5877 5878 5879 5881 5882 5882 5883 5884 5885 5886 5886 5887 5887 5888 5888 5889 5889 5890 5890 5890 5891 5891 5891 5892 5892 5892 5892 5893 5893 5893 5893 5893 5893
5731 5734 5736 5739 5742 5745 5749 5753 5756 5760 5763 5767 5770 5773 5776 5779 5782 5785 5787 5790 5793 5796 5799 5802 5804 5807 5809 5812 5815 5817 5820 5822 5825 5827 5829 5832 5835 5837 5840 5843 5846 5849 5852 5854 5856 5859 5861 5862 5864 5866 5869 5870 5872 5873 5875 5876 5877 5879 5880 5881 5881 5882 5883 5885 5885 5886 5886 5887 5887 5888 5888 5888 5889 5890 5890 5890 5891 5891 5892 5892 5892 5892 5892 5892 5892 5892 5892 5893
5728 5731 5734 5736 5739 5742 5746 5750 5754 5758 5761 5764 5768 5771 5775 5778 5781 5784 5787 5789 5792 5795 5798 5801 5803 5806 5808 5811 5813 5816 5818 5821 5823 5825 5828 5831 5833 5836 5839 5841 5844 5847 5850 5853 5855 5858 5860 5862 5863 5865 5867 5869 5871 5872 5874 5875 5876 5878 5879 5880 5880 5881 5883 5884 5884 5885 5886 5886 5886 5886 5887 5887 5888 5889 5889 5890 5891 5891 5891 5891 5892 5891 5892 5892 5892 5892 5892 5892
5725 5728 5731 5734 5736 5740 5743 5747 5751 5755 5759 5762 5766 5769 5773 5776 5779 5782 5785 5788 5791 5794 5796 5799 5802 5804 5807 5809 5812 5814 5816 5819 5821 5824 5826 5829 5832 5835 5838 5840 5843 5846 5848 5851 5854 5856 5858 5861 5862 5864 5866 5867 5869 5871 5873 5874 5875 5877 5878 5879 5879 5880 5882 5883 5883 5884 5885 5885 5885 5885 5886 5886 5888 5888 5889 5889 5890 5890 5890 5891 5891 5891 5891 5891 5892 5892 5891 5891
5722 5725 5728 5731 5734 5737 5740 5744 5749 5752 5756 5760 5763 5767 5770 5774 5777 5781 5784 5787 5790 5792 5795 5798 5800 5803 5805 5808 5810 5813 5815 5817 5820 5822 5825 5828 5831 5834 5837 5839 5842 5845 5847 5850 5852 5855 5857 5859 5861 5863 5864 5866 5868 5870 5871 5873 5874 5876 5877 5877 5877 5879 5881 5882 5882 5883 5884 5884 5884 5884 5885 5885 5887 5888 5888 5888 5889 5890 5890 5890 5890 5891 5891 5891 5891 5891 5891 5891
5719 5722 5725 5728 5731 5734 5737 5741 5746 5750 5753 5757 5761 5764 5768 5771 5775 5778 5782 5785 5788 5791 5794 5796 5799 5801 5804 5806 5809 5811 5814 5816 5819 5821 5824 5826 5829 5832 5835 5838 5841 5843 5846 5848 5851 5853 5856 5858 5860 5862 5864 5866 5867 5869 5870 5871 5873 5875 5875 5876 5876 5878 5879 5881 5881 5882 5882 5883 5883 5883 5884 5885 5886 5887 5887 5888 5889 5889 5889 5889 5889 5889 5890 5890 5890 5891 5890 5890
5716 5719 5722 5725 5728 5731 5734 5738 5743 5747 5751 5755 5758 5762 5765 5769 5772 5776 5779 5783 5786 5789 5792 5795 5797 5800 5802 5805 5808 5810 5812 5815 5818 5820 5822 5825 5828 5831 5834 5836 5839 5842 5844 5847 5849 5852 5854 5856 5858 5861 5863 5864 5866 5867 5868 5870 5872 5873 5874 5874 5874 5876 5878 5879 5880 5881 5881 5882 5882 5882 5883 5884 5885 5886 5887 5887 5888 5888 5889 5889 5889 5889 5889 5889 5890 5890 5890 5889
5713 5716 5719 5722 5725 5728 5732 5735 5739 5744 5748 5752 5756 5759 5763 5766 5769 5773 5777 5780 5783 5787 5790 5793 5796 5798 5801 5804 5806 5808 5811 5814 5816 5819 5821 5823 5826 5829 5832 5835 5837 5840 5842 5845 5847 5849 5852 5854 5857 5859 5861 5862 5864 5865 5866 5868 5870 5871 5871 5872 5873 5875 5876 5877 5879 5879 5880 5880 5881 5881 5881 5882 5884 5885 5886 5886 5887 5888 5888 5888 5888 5888 5888 5888 5888 5888 5888 5888
5709 5713 5716 5719 5722 5726 5729 5732 5736 5740 5745 5749 5753 5756 5760 5763 5767 5770 5774 5778 5781 5785 5788 5791 5794 5797 5800 5803 5805 5807 5809 5812 5815 5817 5820 5822 5825 5827 5830 5833 5835 5838 5840 5843 5845 5847 5850 5853 5855 5857 5858 5860 5861 5863 5865 5867 5868 5869 5870 5871 5872 5873 5875 5876 5877 5878 5879 5879 5880 5880 5880 5881 5883 5884 5885 5885 5886 5887 5887 5887 5887 5887 5887 5887 5887 5887 5887 5887
5706 5710 5713 5716 5720 5723 5726 5730 5733 5737 5741 5745 5749 5753 5757 5761 5764 5768 5772 5775 5779 5783 5786 5789 5792 5795 5798 5801 5803 5805 5808 5810 5813 5815 5818 5821 5823 5826 5828 5830 5833 5835 5838 5841 5843 5845 5848 5850 5853 5855 5856 5858 5859 5860 5862 5864 5866 5867 5868 5870 5871 5872 5873 5875 5876 5877 5877 5878 5878 5879 5879 5880 5881 5882 5883 5884 5885 5885 5886 5886 5886 5886 5886 5886 5886 5886 5886 5886
5703 5706 5710 5713 5717 5720 5723 5727 5730 5734 5738 5742 5746 5750 5754 5758 5761 5765 5769 5773 5777 5781 5784 5787 5790 5794 5797 5799 5801 5804 5806 5809 5811 5814 5816 5819 5821 5824 5826 5828 5831 5833 5836 5838 5841 5843 5846 5848 5850 5852 5854 5855 5857 5858 5860 5862 5864 5865 5866 5868 5870 5871 5872 5873 5874 5875 5876 5876 5877 5878 5878 5879 5880 5881 5882 5883 5883 5884 5885 5885 5885 5885 5885 5885 5885 5885 5885 5885
5699 5702 5707 5710 5714 5718 5721 5724 5728 5731 5735 5739 5742 5746 5751 5755 5758 5762 5767 5771 5774 5778 5781 5785 5788 5791 5795 5797 5799 5802 5805 5807 5810 5812 5815 5817 5820 5822 5824 5826 5829 5831 5834 5836 5839 5841 5843 5846 5848 5850 5851 5853 5854 5856 5858 5859 5861 5863 5864 5866 5868 5869 5870 5871 5872 5873 5874 5875 5876 5877 5877 5878 5879 5879 5880 5881 5882 5882 5883 5883 5884 5884 5884 5884 5884 5884 5884 5884
5696 5699 5703 5707 5711 5715 5718 5721 5725 5728 5732 5736 5739 5743 5747 5752 5756 5760 5764 5768 5772 5776 5779 5782 5786 5789 5792 5795 5797 5800 5803 5806 5808 5810 5813 5815 5818 5820 5822 5824 5826 5829 5831 5834 5836 5838 5841 5843 5845 5847 5849 5850 5852 5853 5855 5857 5859 5860 5862 5864 5865 5867 5868 5869 5871 5872 5872 5873 5874 5875 5876 5876 5877 5878 5879 5879 5880 5881 5881 5882 5882 5882 5883 5883 5883 5883 5883 5882
5692 5695 5699 5703 5707 5711 5715 5719 5722 5725 5729 5733 5736 5740 5744 5749 5753 5757 5761 5765 5769 5772 5776 5779 5783 5786 5790 5792 5795 5798 5801 5804 5806 5808 5811 5813 5815 5818 5820 5822 5824 5827 5829 5831 5833 5836 5838 5840 5842 5844 5846 5847 5849 5851 5852 5854 5856 5858 5860 5861 5863 5865 5866 5867 5869 5870 5870 5871 5872 5873 5874 5875 5875 5876 5877 5878 5878 5879 5880 5880 5881 5881 5881 5881 5881 5881 5881 5881
5688 5692 5696 5700 5704 5708 5712 5715 5719 5722 5725 5729 5733 5737 5741 5745 5749 5753 5758 5762 5766 5769 5773 5777 5780 5784 5786 5789 5793 5796 5799 5802 5804 5806 5808 5811 5813 5815 5817 5820 5822 5824 5826 5829 5831 5833 5835 5837 5839 5841 5843 5845 5846 5848 5850 5852 5854 5856 5858 5859 5861 5862 5864 5865 5867 5868 5868 5869 5870 5871 5873 5873 5874 5874 5875 5876 5877 5878 5878 5879 5879 5879 5879 5879 5879 5880 5879 5879
5685 5688 5692 5696 5700 5704 5708 5712 5715 5719 5722 5726 5730 5734 5738 5742 5746 5750 5754 5759 5763 5767 5770 5774 5777 5780 5783 5787 5790 5794 5796 5799 5801 5803 5806 5808 5810 5813 5815 5817 5819 5822 5824 5826 5828 5830 5832 5834 5836 5838 5840 5842 5844 5846 5848 5850 5853 5854 5855 5857 5858 5860 5862 5863 5864 5865 5866 5867 5868 5869 5871 5871 5872 5873 5873 5874 5875 5876 5877 5877 5878 5878 5878 5878 5878 5878 5878 5878
5682 5685 5688 5692 5696 5700 5704 5708 5712 5715 5719 5723 5727 5731 5734 5738 5742 5747 5751 5756 5760 5764 5767 5771 5775 5778 5782 5785 5788 5791 5794 5796 5798 5801 5803 5805 5808 5810 5812 5815 5817 5819 5821 5823 5826 5828 5830 5831 5833 5836 5838 5840 5843 5844 5846 5848 5849 5850 5852 5854 5856 5858 5860 5861 5862 5863 5863 5864 5866 5867 5868 5869 5870 5871 5871 5872 5873 5874 5875 5875 5876 5876 5876 5876 5877 5877 5877 5877
5678 5682 5685 5689 5692 5697 5701 5704 5708 5712 5716 5720 5724 5728 5731 5735 5739 5743 5748 5753 5757 5761 5765 5769 5773 5776 5779 5783 5785 5788 5791 5794 5796 5798 5800 5803 5805 5808 5810 5812 5815 5817 5819 5821 5823 5825 5827 5829 5831 5834 5836 5838 5840 5841 5842 5844 5846 5848 5849 5851 5853 5856 5857 5858 5859 5860 5861 5862 5863 5864 5865 5867 5868 5869 5869 5870 5871 5873 5873 5873 5874 5874 5874 5874 5875 5875 5875 5875
5674 5678 5681 5685 5688 5693 5697 5701 5704 5708 5713 5717 5721 5725 5730 5734 5738 5742 5746 5749 5752 5757 5760 5765 5768 5772 5776 5779 5782 5785 5788 5791 5793 5796 5798 5800 5803 5805 5808 5810 5812 5814 5816 5818 5820 5822 5824 5826 5829 5831 5833 5834 5836 5837 5839 5841 5843 5845 5847 5849 5851 5853 5854 5855 5856 5857 5858 5860 5861 5861 5862 5865 5866 5866 5867 5867 5869 5871 5871 5871 5871 5871 5872 5872 5872 5873 5873 5873
5670 5674 5677 5681 5684 5689 5693 5697 5701 5705 5710 5714 5719 5724 5728 5732 5736 5740 5743 5745 5749 5752 5756 5760 5764 5768 5772 5775 5778 5781 5784 5787 5790 5793 5795 5797 5800 5803 5805 5808 5810 5811 5814 5816 5818 5820 5822 5824 5826 5827 5829 5831 5833 5835 5837 5838 5841 5843 5845 5846 5848 5850 5852 5853 5853 5854 5856 5857 5858 5858 5859 5862 5864 5864 5864 5865 5866 5869 5869 5869 5869 5869 5869 5870 5870 5870 5870 5870
5666 5670 5673 5677 5680 5684 5689 5693 5697 5702 5707 5711 5716 5720 5724 5728 5731 5734 5737 5740 5744 5748 5752 5756 5760 5763 5768 5772 5775 5778 5781 5784 5787 5790 5792 5795 5797 5800 5802 5805 5807 5809 5811 5813 5815 5817 5820 5821 5823 5825 5827 5828 5830 5832 5834 5836 5838 5840 5842 5844 5845 5847 5848 5849 5851 5852 5853 5854 5855 5855 5856 5859 5861 5861 5862 5863 5864 5866 5866 5866 5866 5866 5867 5868 5868 5868 5868 5867
5662 5665 5669 5673 5676 5680 5685 5689 5694 5699 5703 5708 5712 5715 5720 5724 5726 5729 5732 5735 5738 5743 5747 5751 5756 5760 5764 5768 5772 5775 5778 5781 5784 5787 5789 5792 5794 5797 5799 5801 5803 5806 5808 5810 5812 5814 5816 5817 5820 5822 5823 5825 5827 5829 5831 5833 5835 5837 5839 5840 5842 5844 5845 5847 5848 5849 5850 5850 5851 5852 5852 5856 5859 5859 5859 5861 5862 5863 5863 5863 5863 5864 5865 5865 5865 5865 5865 5865
5657 5661 5665 5669 5673 5676 5680 5685 5691 5696 5700 5704 5707 5711 5715 5718 5721 5725 5727 5730 5733 5737 5741 5746 5751 5755 5760 5765 5768 5771 5775 5778 5780 5783 5786 5788 5790 5793 5795 5797 5800 5802 5805 5807 5809 5811 5812 5814 5817 5818 5820 5822 5824 5826 5828 5830 5832 5833 5835 5837 5839 5841 5842 5843 5845 5846 5847 5847 5849 5850 5849 5851 5855 5856 5857 5859 5860 5860 5860 5859 5861 5862 5862 5862 5862 5862 5862 5862
5653 5657 5661 5665 5669 5673 5677 5682 5687 5691 5695 5699 5703 5707 5710 5713 5716 5719 5722 5725 5727 5731 5736 5742 5746 5750 5756 5760 5764 5767 5770 5774 5777 5780 5783 5784 5787 5790 5791 5794 5797 5799 5801 5803 5805 5807 5809 5811 5813 5815 5817 5819 5821 5823 5825 5827 5829 5830 5832 5834 5836 5837 5838 5840 5841 5842 5843 5844 5846 5847 5845 5846 5851 5854 5855 5856 5857 5857 5856 5856 5858 5859 5859 5859 5859 5859 5859 5858
5648 5652 5656 5660 5665 5669 5674 5679 5683 5687 5691 5694 5698 5703 5706 5709 5710 5714 5718 5718 5720 5727 5733 5737 5742 5748 5752 5756 5760 5763 5766 5770 5774 5776 5779 5781 5784 5786 5788 5791 5793 5795 5797 5799 5802 5804 5807 5808 5810 5812 5814 5816 5818 5820 5822 5824 5825 5827 5829 5831 5832 5833 5835 5836 5837 5838 5839 5841 5842 5844 5843 5842 5845 5850 5852 5852 5853 5854 5854 5854 5854 5855 5856 5856 5856 5856 5855 5855
5644 5648 5652 5657 5661 5665 5670 5674 5679 5684 5687 5690 5695 5698 5700 5703 5705 5709 5711 5710 5714 5723 5728 5733 5740 5744 5747 5751 5756 5760 5763 5768 5770 5772 5776 5778 5780 5783 5785 5788 5790 5791 5794 5796 5799 5802 5804 5806 5807 5809 5811 5813 5815 5817 5818 5820 5821 5823 5825 5826 5828 5829 5831 5832 5833 5835 5836 5837 5839 5841 5841 5838 5839 5845 5848 5848 5849 5850 5851 5852 5851 5851 5852 5852 5852 5852 5851 5850
5639 5644 5648 5652 5656 5660 5665 5670 5675 5678 5681 5685 5690 5692 5695 5697 5699 5702 5703 5703 5711 5720 5725 5730 5736 5739 5742 5747 5752 5756 5760 5763 5765 5769 5772 5774 5776 5779 5782 5784 5786 5787 5790 5793 5796 5798 5800 5802 5803 5805 5807 5809 5811 5812 5814 5815 5817 5819 5821 5823 5824 5825 5827 5828 5829 5831 5832 5833 5835 5837 5838 5836 5834 5838 5843 5844 5845 5846 5847 5848 5848 5848 5848 5847 5848 5847 5846 5846
5635 5640 5643 5647 5652 5657 5662 5666 5669 5672 5676 5681 5683 5686 5689 5690 5693 5694 5693 5699 5710 5717 5721 5726 5731 5735 5739 5743 5748 5752 5756 5759 5762 5764 5766 5769 5772 5775 5777 5779 5781 5783 5786 5789 5791 5794 5796 5798 5799 5801 5803 5805 5808 5809 5810 5812 5813 5816 5817 5819 5820 5821 5823 5824 5826 5828 5828 5829 5831 5833 5835 5835 5831 5832 5837 5839 5840 5842 5843 5843 5842 5842 5842 5842 5842 5842 5842 5841
5631 5635 5639 5644 5649 5654 5658 5661 5663 5667 5671 5674 5677 5680 5682 5683 5686 5685 5690 5703 5710 5711 5716 5722 5726 5731 5736 5740 5745 5749 5751 5754 5756 5759 5761 5765 5767 5770 5772 5774 5777 5779 5781 5784 5787 5790 5792 5794 5796 5798 5800 5802 5804 5806 5807 5808 5809 5811 5813 5814 5816 5817 5819 5820 5822 5823 5823 5825 5828 5828 5830 5832 5829 5829 5831 5831 5834 5838 5838 5837 5837 5836 5835 5836 5837 5837 5836 5836
5627 5630 5635 5641 5645 5649 5652 5655 5658 5662 5664 5668 5671 5673 5675 5676 5676 5680 5692 5705 5704 5704 5713 5719 5724 5729 5733 5737 5740 5743 5747 5749 5752 5755 5757 5760 5762 5766 5769 5771 5774 5776 5778 5782 5785 5787 5789 5791 5793 5795 5797 5799 5800 5801 5802 5804 5805 5807 5809 5810 5812 5813 5814 5816 5817 5818 5819 5822 5823 5824 5825 5827 5828 5829 5828 5825 5828 5832 5832 5832 5832 5831 5829 5829 5830 5831 5831 5830
5623 5627 5631 5636 5640 5644 5646 5648 5652 5655 5658 5663 5664 5666 5669 5668 5671 5682 5695 5699 5696 5702 5714 5718 5721 5726 5728 5731 5734 5737 5741 5744 5748 5751 5753 5755 5758 5761 5764 5767 5770 5773 5776 5779 5781 5783 5785 5787 5789 5791 5793 5794 5796 5797 5799 5800 5802 5803 5804 5805 5807 5809 5809 5811 5813 5813 5816 5818 5818 5819 5820 5821 5825 5827 5826 5824 5824 5826 5826 5826 5826 5826 5824 5823 5823 5824 5824 5824
5618 5623 5627 5631 5634 5637 5639 5642 5646 5649 5653 5656 5657 5660 5661 5662 5673 5686 5692 5693 5695 5701 5710 5713 5715 5719 5721 5725 5729 5732 5736 5738 5742 5745 5747 5750 5752 5756 5759 5763 5766 5769 5772 5773 5774 5778 5780 5782 5785 5787 5789 5791 5792 5793 5794 5796 5797 5797 5799 5800 5802 5804 5805 5806 5808 5809 5812 5813 5813 5815 5816 5817 5821 5824 5823 5823 5823 5821 5820 5821 5821 5821 5820 5819 5818 5818 5818 5818
5614 5618 5622 5625 5628 5632 5634 5637 5640 5643 5645 5649 5652 5652 5653 5661 5676 5683 5684 5689 5693 5697 5704 5708 5709 5712 5715 5718 5722 5726 5730 5733 5737 5740 5742 5745 5748 5752 5756 5759 5762 5765 5767 5769 5770 5773 5775 5778 5781 5783 5784 5786 5786 5787 5789 5790 5791 5792 5794 5796 5799 5801 5801 5801 5803 5805 5807 5807 5809 5811 5812 5815 5818 5819 5819 5820 5820 5819 5816 5816 5817 5816 5816 5815 5813 5812 5813 5813
5609 5613 5617 5621 5624 5627 5630 5632 5635 5637 5639 5643 5644 5644 5652 5667 5677 5679 5680 5685 5689 5692 5697 5699 5701 5703 5707 5711 5715 5719 5723 5727 5731 5734 5737 5741 5744 5747 5751 5755 5758 5761 5764 5766 5767 5769 5771 5774 5777 5778 5779 5781 5781 5782 5784 5785 5786 5788 5790 5793 5795 5796 5795 5796 5797 5799 5800 5801 5804 5807 5809 5812 5814 5813 5814 5815 5816 5815 5813 5813 5813 5812 5811 5810 5808 5807 5806 5808
5605 5609 5614 5617 5619 5622 5624 5627 5629 5631 5634 5636 5637 5643 5657 5668 5671 5673 5676 5680 5683 5687 5688 5691 5694 5697 5701 5706 5711 5715 5719 5721 5724 5727 5732 5735 5737 5742 5747 5750 5752 5756 5759 5761 5762 5764 5766 5768 5770 5772 5773 5774 5776 5777 5778 5780 5782 5784 5786 5789 5790 5789 5790 5792 5792 5794 5795 5795 5800 5803 5805 5808 5809 5809 5810 5811 5810 5810 5810 5810 5809 5808 5807 5806 5805 5803 5801 5802
5601 5605 5609 5611 5613 5616 5619 5621 5623 5626 5629 5631 5635 5646 5657 5662 5663 5667 5671 5675 5679 5682 5683 5685 5690 5694 5698 5702 5707 5711 5713 5715 5718 5722 5726 5729 5732 5739 5743 5745 5749 5752 5754 5755 5757 5758 5760 5761 5762 5765 5767 5768 5770 5771 5773 5776 5778 5779 5782 5783 5784 5783 5785 5787 5787 5789 5791 5791 5794 5798 5800 5802 5805 5806 5806 5806 5805 5805 5805 5805 5805 5804 5803 5801 5801 5800 5799 5798
5596 5600 5603 5605 5608 5611 5613 5615 5618 5621 5622 5625 5634 5646 5653 5656 5658 5661 5665 5669 5673 5676 5677 5679 5684 5690 5693 5698 5703 5706 5708 5711 5714 5718 5721 5724 5730 5736 5739 5742 5745 5748 5749 5750 5752 5753 5755 5756 5757 5759 5762 5762 5764 5766 5770 5772 5773 5774 5776 5777 5779 5780 5781 5783 5783 5784 5786 5786 5788 5791 5793 5797 5801 5803 5802 5801 5801 5801 5800 5800 5799 5798 5797 5796 5795 5796 5795 5795
5591 5594 5598 5601 5604 5607 5608 5610 5613 5614 5617 5625 5636 5644 5647 5648 5651 5655 5659 5664 5668 5670 5672 5673 5678 5684 5688 5692 5696 5699 5703 5706 5709 5713 5716 5721 5727 5731 5735 5738 5741 5743 5743 5744 5745 5747 5749 5750 5751 5754 5755 5756 5759 5763 5766 5768 5767 5769 5770 5772 5774 5776 5776 5777 5777 5779 5780 5781 5782 5784 5786 5792 5797 5798 5797 5797 5797 5796 5795 5795 5793 5791 5790 5790 5790 5790 5790 5789
5587 5590 5595 5598 5600 5601 5603 5605 5607 5610 5617 5626 5634 5637 5639 5642 5646 5651 5654 5657 5661 5664 5666 5667 5672 5678 5683 5686 5690 5694 5697 5700 5703 5706 5710 5715 5721 5726 5731 5734 5735 5736 5735 5735 5738 5741 5743 5744 5746 5747 5748 5752 5756 5759 5760 5761 5761 5763 5764 5767 5769 5770 5770 5770 5770 5772 5774 5775 5777 5778 5780 5787 5792 5792 5793 5793 5792 5791 5791 5789 5787 5785 5785 5785 5784 5784 5785 5784
5583 5587 5592 5594 5595 5597 5599 5601 5605 5609 5615 5623 5628 5630 5633 5638 5643 5646 5648 5651 5654 5657 5659 5661 5665 5671 5676 5680 5684 5688 5691 5694 5697 5700 5704 5710 5716 5722 5726 5727 5727 5728 5728 5729 5733 5737 5737 5737 5739 5741 5744 5748 5750 5751 5753 5754 5755 5756 5758 5761 5763 5762 5763 5763 5763 5767 5768 5769 5772 5773 5775 5781 5786 5787 5787 5787 5786 5786 5784 5783 5782 5781 5780 5780 5778 5779 5779 5778
5580 5584 5588 5590 5591 5593 5593 5595 5599 5604 5611 5619 5623 5624 5628 5633 5636 5640 5642 5644 5647 5651 5653 5655 5659 5664 5669 5675 5678 5681 5685 5688 5691 5695 5701 5706 5711 5716 5717 5717 5719 5720 5721 5723 5727 5729 5728 5728 5732 5734 5737 5740 5741 5743 5746 5747 5748 5750 5753 5756 5756 5756 5757 5757 5757 5760 5761 5763 5768 5767 5768 5776 5781 5781 5781 5780 5780 5779 5778 5777 5776 5774 5774 5774 5773 5773 5773 5773
5575 5579 5582 5584 5587 5588 5586 5587 5593 5600 5608 5614 5615 5617 5622 5626 5630 5633 5636 5638 5641 5645 5648 5651 5655 5659 5664 5669 5673 5675 5679 5681 5685 5691 5696 5699 5704 5708 5709 5710 5712 5714 5716 5719 5721 5722 5720 5721 5725 5727 5728 5731 5732 5735 5739 5741 5743 5744 5747 5749 5749 5750 5751 5750 5751 5752 5752 5759 5762 5759 5762 5770 5774 5775 5775 5773 5773 5773 5770 5770 5768 5767 5767 5767 5767 5767 5767 5767
5568 5572 5575 5578 5581 5582 5581 5584 5590 5597 5602 5605 5607 5611 5616 5619 5623 5627 5630 5633 5636 5639 5643 5646 5650 5654 5658 5662 5666 5669 5672 5675 5680 5685 5689 5693 5698 5701 5702 5703 5705 5708 5712 5714 5714 5714 5712 5713 5718 5718 5719 5723 5726 5731 5737 5740 5739 5739 5742 5744 5744 5745 5745 5745 5747 5745 5746 5754 5755 5750 5756 5764 5767 5769 5769 5767 5766 5766 5764 5761 5760 5760 5759 5759 5760 5760 5761 5760
5561 5564 5568 5571 5573 5574 5577 5581 5585 5590 5594 5596 5600 5605 5609 5612 5618 5622 5624 5626 5629 5633 5637 5640 5645 5648 5650 5653 5658 5663 5667 5671 5675 5678 5682 5687 5693 5695 5696 5697 5699 5703 5706 5706 5706 5706 5704 5706 5709 5711 5713 5718 5724 5729 5732 5732 5730 5731 5735 5737 5736 5737 5738 5738 5737 5736 5741 5746 5743 5744 5752 5755 5758 5761 5761 5761 5761 5759 5758 5755 5753 5752 5751 5750 5752 5753 5754 5754
5554 5558 5562 5565 5567 5568 5571 5577 5580 5584 5588 5591 5594 5598 5602 5607 5612 5615 5616 5620 5624 5627 5630 5634 5638 5640 5643 5648 5653 5657 5663 5667 5668 5671 5677 5682 5686 5688 5689 5690 5692 5695 5697 5698 5698 5699 5698 5699 5703 5706 5709 5714 5719 5721 5721 5720 5720 5722 5725 5726 5727 5728 5729 5728 5727 5732 5738 5734 5732 5742 5747 5744 5749 5755 5753 5755 5755 5751 5751 5749 5746 5745 5746 5745 5746 5747 5746 5745
5549 5553 5556 5558 5560 5562 5567 5573 5577 5580 5583 5585 5588 5592 5596 5600 5603 5606 5611 5616 5619 5621 5623 5626 5631 5635 5639 5644 5648 5651 5656 5659 5660 5665 5670 5674 5677 5679 5681 5683 5685 5688 5690 5690 5691 5692 5692 5694 5699 5701 5703 5708 5712 5711 5711 5712 5713 5715 5717 5718 5720 5721 5721 5721 5723 5730 5731 5723 5725 5740 5739 5733 5741 5747 5746 5748 5747 5743 5744 5742 5739 5740 5741 5741 5740 5738 5737 5737
5543 5547 5549 5551 5554 5558 5563 5568 5572 5574 5576 5578 5582 5586 5590 5593 5596 5601 5607 5609 5611 5614 5617 5620 5626 5632 5635 5638 5640 5643 5647 5650 5654 5660 5665 5668 5670 5672 5674 5676 5678 5682 5683 5683 5684 5686 5686 5689 5694 5695 5696 5701 5703 5703 5704 5706 5706 5707 5709 5711 5714 5715 5715 5717 5719 5723 5722 5715 5720 5730 5727 5725 5734 5738 5738 5741 5740 5737 5737 5735 5733 5734 5734 5733 5732 5729 5729 5730
5537 5540 5542 5544 5547 5552 5556 5560 5564 5567 5569 5572 5575 5579 5583 5587 5591 5597 5599 5600 5603 5608 5611 5616 5623 5628 5629 5630 5632 5635 5640 5645 5650 5654 5658 5660 5661 5664 5667 5669 5673 5676 5676 5676 5678 5679 5680 5684 5688 5689 5689 5691 5696 5697 5697 5697 5698 5700 5702 5704 5707 5708 5709 5711 5712 5714 5712 5709 5714 5718 5716 5719 5728 5730 5732 5734 5731 5729 5730 5727 5727 5728 5727 5725 5724 5723 5723 5723
5529 5532 5535 5537 5540 5544 5549 5554 5557 5560 5562 5566 5570 5575 5578 5582 5587 5591 5592 5594 5598 5602 5606 5612 5618 5621 5621 5622 5624 5629 5635 5639 5641 5646 5650 5651 5653 5657 5660 5661 5665 5668 5668 5670 5671 5672 5674 5677 5681 5683 5680 5682 5691 5693 5689 5690 5691 5689 5691 5697 5700 5702 5703 5704 5704 5705 5705 5705 5708 5708 5707 5714 5723 5724 5724 5724 5721 5719 5720 5719 5719 5720 5719 5718 5718 5718 5717 5716
5522 5524 5527 5530 5533 5536 5541 5547 5551 5553 5556 5561 5567 5571 5573 5577 5581 5582 5584 5588 5592 5597 5602 5607 5610 5611 5611 5614 5619 5625 5629 5630 5634 5639 5641 5643 5647 5650 5650 5652 5657 5659 5660 5662 5664 5665 5668 5670 5673 5675 5671 5675 5685 5685 5682 5683 5678 5674 5684 5694 5697 5697 5697 5695 5695 5698 5700 5700 5701 5699 5702 5710 5714 5712 5713 5714 5712 5712 5712 5712 5712 5711 5710 5710 5711 5711 5710 5709